KC3BAN-13 Weather Reports


Display with metric or nautical units.
time (UTC)temp
F
wind
direction
speed
MPH
gust
MPH
rain 1hr
in
rain 24hr
in
rain mn
in
humidity
%
barometer
mb
20260502170305 59 89 1.0 5.0 0.00 0.01 0.01 47 1006.1
20260502164257 58 143 1.0 4.0 0.00 0.01 0.01 50 1006.4
20260502163757 58 72 1.0 4.0 0.00 0.01 0.01 50 1006.4
20260502163257 58 82 1.0 4.0 0.00 0.01 0.01 50 1006.4
20260502162756 57 65 1.0 4.0 0.00 0.01 0.01 52 1006.4
20260502162514 57 83 1.0 4.0 0.00 0.01 0.01 51 1006.5
20260502161754 57 104 1.0 5.0 0.00 0.01 0.01 51 1006.5
20260502161254 57 347 2.0 6.0 0.00 0.01 0.01 54 1006.5
20260502160755 56 63 2.0 6.0 0.00 0.01 0.01 52 1006.5
20260502160255 57 55 1.0 5.0 0.00 0.01 0.01 52 1006.6
20260502151750 55 131 1.0 5.0 0.00 0.01 0.01 56 1007.2
20260502151246 55 37 1.0 5.0 0.00 0.01 0.01 55 1007.0
20260502151013 55 263 1.0 4.0 0.00 0.01 0.01 58 1006.8
20260502150246 55 262 1.0 3.0 0.00 0.01 0.01 63 1006.8
20260502130738 51 11 1.0 6.0 0.00 0.01 0.01 69 1006.5
20260502130239 51 11 1.0 6.0 0.00 0.01 0.01 71 1006.5
20260502123235 51 34 1.0 4.0 0.00 0.01 0.01 75 1006.5
20260502122732 50 42 1.0 2.0 0.00 0.01 0.01 73 1006.5
20260502122232 50 148 1.0 4.0 0.00 0.01 0.01 75 1006.5
20260502121725 50 65 1.0 4.0 0.00 0.01 0.01 72 1006.5
20260502121219 50 147 1.0 5.0 0.00 0.01 0.01 72 1006.5
20260502120714 50 111 1.0 5.0 0.00 0.01 0.01 72 1006.6
20260502120209 50 124 1.0 5.0 0.00 0.01 0.01 73 1006.6
20260502115702 50 342 1.0 5.0 0.00 0.01 0.01 74 1006.6
20260502115156 50 3 0.0 3.0 0.00 0.01 0.01 75 1006.6
20260502114650 50 178 1.0 4.0 0.00 0.01 0.01 74 1006.6
20260502114145 49 112 1.0 4.0 0.00 0.01 0.01 74 1006.7
20260502113638 49 206 1.0 7.0 0.00 0.01 0.01 74 1006.7
20260502113137 49 115 1.0 7.0 0.00 0.01 0.01 73 1006.7
20260502112637 49 233 0.0 5.0 0.00 0.01 0.01 74 1006.7
20260502112356 49 263 1.0 5.0 0.00 0.01 0.01 73 1006.7
20260502111637 49 117 1.0 5.0 0.00 0.01 0.01 73 1006.6
20260502111134 49 136 1.0 5.0 0.00 0.01 0.01 74 1006.5
20260502110854 49 309 1.0 8.0 0.00 0.01 0.01 73 1006.3
20260502110404 49 167 1.0 8.0 0.00 0.01 0.01 74 1006.3
20260502105633 49 266 1.0 5.0 0.00 0.01 0.01 74 1006.4
20260502105132 49 288 1.0 3.0 0.00 0.01 0.01 74 1006.2
20260502104632 49 273 1.0 4.0 0.00 0.01 0.01 74 1006.2
20260502104132 49 119 1.0 4.0 0.00 0.01 0.01 74 1006.1
20260502103632 49 218 1.0 4.0 0.00 0.01 0.01 74 1006.1
20260502103130 49 216 1.0 6.0 0.00 0.01 0.01 74 1006.1
20260502102849 49 283 1.0 6.0 0.00 0.01 0.01 75 1006.0
20260502102128 49 229 0.0 3.0 0.00 0.01 0.01 76 1006.0
20260502101628 49 157 0.0 3.0 0.00 0.01 0.01 76 1005.8
20260502101126 49 253 1.0 5.0 0.00 0.01 0.01 76 1005.9
20260502100625 49 113 1.0 6.0 0.00 0.01 0.01 77 1005.9
20260502100126 49 337 1.0 6.0 0.00 0.01 0.01 77 1005.9
20260502091531 48 77 0.0 4.0 0.00 0.01 0.01 89 1005.2
20260502091026 47 82 0.0 3.0 0.01 0.01 0.01 89 1005.2
20260502090520 47 255 1.0 5.0 0.01 0.01 0.01 89 1005.2
20260502071526 47 229 0.0 0.0 0.00 0.00 0.00 89 1004.9
20260502070802 48 229 0.0 0.0 0.00 0.00 0.00 89 1005.0
20260502070257 48 229 0.0 0.0 0.00 0.00 0.00 89 1005.0
20260502065750 48 229 0.0 0.0 0.00 0.00 0.00 89 1004.7
20260502065244 48 229 0.0 0.0 0.00 0.00 0.00 89 1004.8
20260502064738 48 229 0.0 0.0 0.00 0.00 0.00 88 1004.7
20260502064232 49 229 0.0 0.0 0.00 0.00 0.00 88 1004.7
20260502063727 49 229 0.0 0.0 0.00 0.00 0.00 88 1004.8
20260502063221 49 229 0.0 0.0 0.00 0.00 0.00 88 1004.9
20260502062715 49 229 0.0 0.0 0.00 0.00 0.00 88 1004.9
20260502062207 50 229 0.0 0.0 0.00 0.00 0.00 88 1005.1
20260502061702 50 229 0.0 1.0 0.00 0.00 0.00 88 1005.0
20260502061156 51 229 0.0 1.0 0.00 0.00 0.00 88 1004.9
20260502060649 51 229 0.0 0.0 0.00 0.00 0.00 88 1004.8
20260502060407 51 229 0.0 0.0 0.00 0.00 0.00 87 1004.7
20260502055639 51 229 0.0 0.0 0.00 0.00 0.00 87 1004.8
20260502055132 51 229 0.0 0.0 0.00 0.00 0.00 87 1004.8
20260502054627 51 229 0.0 0.0 0.00 0.00 0.00 87 1005.0
20260502054340 52 229 0.0 1.0 0.00 0.00 0.00 87 1005.1
20260502053614 52 229 0.0 1.0 0.00 0.00 0.00 87 1005.1
20260502053108 52 229 0.0 0.0 0.00 0.00 0.00 86 1005.2
20260502052601 52 229 0.0 0.0 0.00 0.00 0.00 85 1005.2
20260502052057 52 229 0.0 0.0 0.00 0.00 0.00 85 1005.3
20260502051550 52 229 0.0 0.0 0.00 0.00 0.00 85 1005.2
20260502051044 52 229 0.0 0.0 0.00 0.00 0.00 84 1005.3
20260502050538 52 229 0.0 1.0 0.00 0.00 0.00 84 1005.4
20260502050031 53 229 0.0 1.0 0.00 0.00 0.00 83 1005.5
20260502045526 53 229 0.0 1.0 0.00 0.00 0.00 83 1005.5
20260502045020 53 229 0.0 0.0 0.00 0.00 0.00 82 1005.5
20260502044514 53 229 0.0 1.0 0.00 0.00 0.00 82 1005.5
20260502044008 54 229 0.0 2.0 0.00 0.00 0.00 81 1005.5
20260502043726 54 229 0.0 2.0 0.00 0.00 0.00 81 1005.4
20260502042957 54 188 0.0 2.0 0.00 0.00 0.00 80 1005.3
20260502042450 54 246 0.0 2.0 0.00 0.00 0.00 79 1005.4
20260502041944 54 278 0.0 2.0 0.00 0.00 0.00 79 1005.3
20260502041438 54 240 0.0 2.0 0.00 0.00 0.00 79 1005.1
20260502040933 54 259 0.0 2.0 0.00 0.00 0.00 79 1004.9
20260502040427 54 259 0.0 3.0 0.00 0.00 0.00 79 1004.8
20260502035919 54 227 0.0 3.0 0.00 0.00 0.00 79 1004.7
20260502035637 54 247 0.0 1.0 0.00 0.00 0.00 79 1004.6
20260502034907 54 255 0.0 2.0 0.00 0.00 0.00 78 1004.4
20260502034402 54 250 0.0 2.0 0.00 0.00 0.00 78 1004.5
20260502033856 54 286 0.0 2.0 0.00 0.00 0.00 78 1004.6
20260502033609 54 240 0.0 1.0 0.00 0.00 0.00 78 1004.4
20260502032843 54 240 0.0 1.0 0.00 0.00 0.00 78 1004.5
20260502032338 54 240 0.0 1.0 0.00 0.00 0.00 77 1004.6
20260502031831 54 198 0.0 4.0 0.00 0.00 0.00 77 1004.5
20260502031326 54 198 0.0 4.0 0.00 0.00 0.00 77 1004.4
20260502030819 54 236 0.0 0.0 0.00 0.00 0.00 78 1004.3
20260502030313 54 176 0.0 0.0 0.00 0.00 0.00 77 1004.3
20260502025807 54 252 0.0 0.0 0.00 0.00 0.00 77 1004.3
20260502025301 54 252 0.0 1.0 0.00 0.00 0.00 77 1004.3
20260502024756 54 251 0.0 1.0 0.00 0.00 0.00 77 1004.3
20260502023743 54 4 0.0 1.0 0.00 0.00 0.00 77 1004.4
20260502023457 54 4 0.0 1.0 0.00 0.00 0.00 77 1004.3
20260502022731 54 76 0.0 1.0 0.00 0.00 0.00 78 1004.3
20260502022227 54 221 0.0 1.0 0.00 0.00 0.00 79 1004.3
20260502021937 54 243 0.0 1.0 0.00 0.00 0.00 79 1004.6
20260502021213 54 261 0.0 1.0 0.00 0.00 0.00 79 1004.6
20260502020932 54 261 0.0 1.0 0.00 0.00 0.00 79 1004.6
20260502020201 54 260 0.0 1.0 0.00 0.00 0.00 79 1004.5
20260502015656 54 260 0.0 1.0 0.00 0.00 0.00 78 1004.5
20260502015150 54 260 0.0 0.0 0.00 0.00 0.00 78 1004.4
20260502014643 55 260 0.0 0.0 0.00 0.00 0.00 78 1004.3
20260502014137 55 260 0.0 1.0 0.00 0.00 0.00 78 1004.2
20260502013630 55 260 0.0 1.0 0.00 0.00 0.00 78 1004.3
20260502013127 55 260 0.0 0.0 0.00 0.00 0.00 77 1004.2
20260502012619 54 260 0.0 1.0 0.00 0.00 0.00 77 1004.0
20260502012112 54 261 0.0 1.0 0.00 0.00 0.00 77 1004.0
20260502011831 54 29 0.0 1.0 0.00 0.00 0.00 76 1003.9
20260502011102 54 256 0.0 2.0 0.00 0.00 0.00 76 1003.9
20260502010556 54 89 0.0 2.0 0.00 0.00 0.00 76 1003.8
20260502010312 54 109 0.0 2.0 0.00 0.00 0.00 76 1003.7
20260502005543 54 276 0.0 2.0 0.00 0.00 0.00 76 1003.6
20260502005038 54 349 0.0 2.0 0.00 0.00 0.00 76 1003.5
20260502004531 54 86 0.0 1.0 0.00 0.00 0.00 76 1003.4
20260502004027 54 86 0.0 1.0 0.00 0.00 0.00 76 1003.5
20260502003519 53 86 0.0 1.0 0.00 0.00 0.00 76 1003.6
20260502003013 53 86 0.0 1.0 0.00 0.00 0.00 76 1003.7
20260502002507 53 259 0.0 1.0 0.00 0.00 0.00 75 1003.8
20260502002001 54 259 0.0 1.0 0.00 0.00 0.00 74 1003.9
20260502001456 54 86 0.0 1.0 0.00 0.00 0.00 72 1003.8
20260502000949 54 86 0.0 1.0 0.00 0.00 0.00 71 1003.8
20260502000444 54 86 0.0 1.0 0.00 0.00 0.00 69 1003.7
20260501235938 55 86 0.0 1.0 0.00 0.00 0.00 68 1003.6
20260501235432 55 344 0.0 1.0 0.00 0.00 0.00 67 1003.5
20260501234927 56 345 0.0 0.0 0.00 0.00 0.00 65 1003.5
20260501234643 56 353 0.0 0.0 0.00 0.00 0.00 64 1003.4
20260501233914 57 353 0.0 0.0 0.00 0.00 0.00 63 1003.4
20260501233407 58 353 0.0 1.0 0.00 0.00 0.00 61 1003.2
20260501232902 58 353 0.0 2.0 0.00 0.00 0.00 60 1003.3
20260501232356 59 331 0.0 2.0 0.00 0.00 0.00 58 1003.2
20260501231849 60 39 0.0 1.0 0.00 0.00 0.00 55 1003.2
20260501231344 62 349 0.0 1.0 0.00 0.00 0.00 54 1003.3
20260501230837 63 241 0.0 1.0 0.00 0.00 0.00 51 1003.3
20260501230331 64 240 0.0 1.0 0.00 0.00 0.00 50 1003.3
20260501225827 64 289 0.0 1.0 0.00 0.00 0.00 49 1003.4
20260501225319 64 23 0.0 1.0 0.00 0.00 0.00 49 1003.5
20260501224814 65 250 0.0 1.0 0.00 0.00 0.00 48 1003.4
20260501224536 65 249 0.0 1.0 0.00 0.00 0.00 48 1003.5
20260501223801 65 128 0.0 1.0 0.00 0.00 0.00 48 1003.5
20260501223256 65 23 0.0 1.0 0.00 0.00 0.00 48 1003.5
20260501222749 66 23 0.0 1.0 0.00 0.00 0.00 47 1003.5
20260501222243 66 90 0.0 1.0 0.00 0.00 0.00 48 1003.5
20260501221954 66 64 0.0 3.0 0.00 0.00 0.00 47 1003.6
20260501221232 66 314 0.0 3.0 0.00 0.00 0.00 47 1003.6
20260501220726 67 57 1.0 3.0 0.00 0.00 0.00 48 1003.7
20260501220220 67 156 1.0 3.0 0.00 0.00 0.00 47 1003.6
20260501215713 67 249 0.0 2.0 0.00 0.00 0.00 48 1003.6
20260501215207 67 101 0.0 2.0 0.00 0.00 0.00 49 1003.6
20260501214701 68 301 0.0 3.0 0.00 0.00 0.00 46 1003.6
20260501214157 68 144 0.0 4.0 0.00 0.00 0.00 45 1003.6
20260501213910 68 278 0.0 4.0 0.00 0.00 0.00 48 1003.5
20260501213143 68 114 1.0 3.0 0.00 0.00 0.00 47 1003.6
20260501212638 68 252 1.0 3.0 0.00 0.00 0.00 46 1003.5
20260501212131 69 89 1.0 6.0 0.00 0.00 0.00 48 1003.5
20260501211626 69 225 0.0 6.0 0.00 0.00 0.00 48 1003.4
20260501211120 69 5 0.0 3.0 0.00 0.00 0.00 47 1003.5
20260501210836 69 70 0.0 3.0 0.00 0.00 0.00 50 1003.5
20260501210107 68 98 0.0 2.0 0.00 0.00 0.00 51 1003.5
20260501205602 69 237 0.0 2.0 0.00 0.00 0.00 50 1003.6
20260501205319 68 94 0.0 4.0 0.00 0.00 0.00 51 1003.8
20260501204809 68 79 1.0 4.0 0.00 0.00 0.00 47 1003.7
20260501204044 68 305 1.0 4.0 0.00 0.00 0.00 48 1003.9
20260501203538 68 72 1.0 4.0 0.00 0.00 0.00 51 1003.9
20260501203250 68 15 1.0 4.0 0.00 0.00 0.00 48 1004.0
20260501202756 68 315 1.0 4.0 0.00 0.00 0.00 46 1004.1
20260501202020 68 237 1.0 4.0 0.00 0.00 0.00 47 1004.1
20260501201510 69 84 0.0 3.0 0.00 0.00 0.00 47 1004.0
20260501201004 68 211 1.0 4.0 0.00 0.00 0.00 46 1004.0
20260501200714 68 92 1.0 4.0 0.00 0.00 0.00 45 1004.2
20260501195951 68 68 0.0 3.0 0.00 0.00 0.00 44 1004.3
20260501195447 68 110 1.0 6.0 0.00 0.00 0.00 45 1004.4
20260501194939 68 158 1.0 6.0 0.00 0.00 0.00 42 1004.5
20260501194433 68 258 1.0 3.0 0.00 0.00 0.00 45 1004.6
20260501193927 68 43 1.0 3.0 0.00 0.00 0.00 42 1004.6
20260501193421 68 89 1.0 3.0 0.00 0.00 0.00 45 1004.7
20260501192917 68 254 0.0 2.0 0.00 0.00 0.00 46 1004.8
20260501192410 68 259 1.0 3.0 0.00 0.00 0.00 46 1004.8
20260501191904 67 136 0.0 3.0 0.00 0.00 0.00 43 1004.9
20260501191400 67 271 1.0 7.0 0.00 0.00 0.00 47 1004.9
20260501190858 67 127 1.0 7.0 0.00 0.00 0.00 47 1005.0
20260501190357 67 194 0.0 2.0 0.00 0.00 0.00 48 1005.3
20260501190116 66 237 0.0 2.0 0.00 0.00 0.00 49 1005.2
20260501185354 66 148 1.0 5.0 0.00 0.00 0.00 53 1005.3
20260501184851 65 75 1.0 5.0 0.00 0.00 0.00 48 1005.4
20260501184351 66 80 1.0 4.0 0.00 0.00 0.00 50 1005.4
20260501183851 66 80 0.0 2.0 0.00 0.00 0.00 48 1005.5
20260501183616 66 126 0.0 3.0 0.00 0.00 0.00 47 1005.5
20260501182848 66 89 0.0 3.0 0.00 0.00 0.00 51 1005.6
20260501182348 65 126 1.0 5.0 0.00 0.00 0.00 46 1005.7
20260501181847 65 108 1.0 5.0 0.00 0.00 0.00 49 1005.7
20260501181347 66 72 1.0 4.0 0.00 0.00 0.00 52 1005.8
20260501180848 65 224 1.0 6.0 0.00 0.00 0.00 49 1005.7
20260501180610 65 302 1.0 6.0 0.00 0.00 0.00 46 1005.8
20260501175844 66 56 1.0 3.0 0.00 0.00 0.00 49 1005.9
20260501175344 65 98 1.0 4.0 0.00 0.00 0.00 50 1005.8
20260501174843 65 89 1.0 4.0 0.00 0.00 0.00 49 1005.9
20260501174606 65 269 1.0 6.0 0.00 0.00 0.00 52 1006.0